Welcome to the New NWS' Forecast!
Most changes are behind the scenes, but click here for differences you might notice.

Regional Weather Roundup (RWR)

Issued by Little Rock, AR (LZK)

                            
000
ASUS44 KLZK 230705
RWRLZK

WEATHER ROUNDUP FOR ARKANSAS
NATIONAL WEATHER SERVICE LITTLE ROCK AR
200 AM CDT TUE OCT 23 2018

NOTE: "FAIR" INDICATES FEW OR NO CLOUDS BELOW 12,000 FEET WITH NO
SIGNIFICANT WEATHER AND/OR OBSTRUCTIONS TO VISIBILITY.

ARZ001-003-010-029-230800-
NORTHWEST ARKANSAS
  
CITY           SKY/WX    TMP DP  RH WIND       PRES   REMARKS
FAYETTEVILLE     N/A     44  42  93 S3        30.23S                  
FORT SMITH     MOCLDY    50  47  89 NE3       30.22S                  
HARRISON       CLOUDY    50  45  83 W3        30.22S                  
BENTONVILLE    CLOUDY    48  45  89 CALM      30.25R                  
ROGERS         CLOUDY    48  45  89 CALM      30.23S                  
SILOAM SPGS    CLOUDY    45  44  97 E3        30.23S                  
HIGHFILL       CLOUDY    46  41  82 CALM      30.23S                  
$$

ARZ004-005-016-230800-
NORTH CENTRAL ARKANSAS
  
CITY           SKY/WX    TMP DP  RH WIND       PRES   REMARKS
BATESVILLE     FAIR      45  43  93 CALM      30.22S                  
FLIPPIN        CLOUDY    43  42  97 CALM      30.23R                  
MTN HOME       PTCLDY    46  43  89 CALM      30.20S                  
$$

ARZ040-041-230800-
WEST CENTRAL ARKANSAS
  
CITY           SKY/WX    TMP DP  RH WIND       PRES   REMARKS
MENA           MOCLDY    46  45  93 CALM      30.22S                  
$$

ARZ009-017-025-026-028-230800-
NORTHEAST ARKANSAS
  
CITY           SKY/WX    TMP DP  RH WIND       PRES   REMARKS
CORNING        FAIR      43  43 100 CALM      30.22S                  
JONESBORO      FAIR      44  44 100 CALM      30.21F                  
NEWPORT        FAIR      44  44 100 CALM      30.22F FOG              
WALNUT RIDGE   FAIR      46  43  89 CALM      30.22S                  
BLYTHEVILLE    FAIR      49  45  86 CALM      30.22S                  
$$

ARZ022-023-033-042-044-230800-
CENTRAL ARKANSAS
  
CITY           SKY/WX    TMP DP  RH WIND       PRES   REMARKS
LITTLE ROCK    CLOUDY    47  47 100 W3        30.22S                  
N LITTLE ROCK    N/A     49  44  81 CALM      30.25S                  
JACKSONVILLE   MOCLDY    45  44  99 CALM      30.21S                  
CONWAY         PTSUNNY   46  46 100 CALM      30.21F                  
SEARCY         FAIR      45  45 100 CALM      30.22F                  
HOT SPRINGS    FAIR      48  47  96 CALM      30.21S                  
RUSSELLVILLE   CLOUDY    45  45 100 CALM      30.22S                  
CLINTON        FAIR      43  41  93 CALM      30.23F                  
$$

ARZ036-230800-
EAST ARKANSAS
  
CITY           SKY/WX    TMP DP  RH WIND       PRES   REMARKS
$$

ARZ050-053-066-070-073-230800-
SOUTHWEST ARKANSAS
  
CITY           SKY/WX    TMP DP  RH WIND       PRES   REMARKS
ARKADELPHIA    FAIR      49  48  97 CALM      30.23R                  
CAMDEN           N/A     48  45  87 CALM      30.20S                  
TEXARKANA      FAIR      52  49  89 CALM      30.20S                  
EL DORADO      FAIR      49  48  97 CALM      30.20S                  
DE QUEEN       MOCLDY    47  47 100 CALM      30.20S                  
$$

ARZ056-057-069-230800-
SOUTHEAST ARKANSAS
  
CITY           SKY/WX    TMP DP  RH WIND       PRES   REMARKS
PINE BLUFF     FAIR      48  46  93 CALM      30.21S                  
STUTTGART      FAIR      49  47  93 CALM      30.22S                  
MONTICELLO     FAIR      47  45  93 CALM      30.20F                  

$$